Regional Weather Roundup
Issued by NWS

Home | Current Version | Previous Version | Graphics & Text | Print | Product List | Glossary On
Versions: 1 2 3 4 5 6 7 8 9 10 11 12 13 14 15 16 17 18 19 20 21 22 23 24 25 26 27 28 29 30 31 32 33 34 35 36 37 38 39 40 41 42 43 44 45 46 47 48 49 50
000
ASUS45 KBOU 251507
RWRCO

WEATHER ROUNDUP FOR COLORADO
NATIONAL WEATHER SERVICE DENVER/BOULDER CO
900 AM MDT TUE JUL 25 2017

NOTE: "FAIR" INDICATES FEW OR NO CLOUDS BELOW 12000 FEET WITH NO
SIGNIFICANT WEATHER AND/OR OBSTRUCTIONS TO VISIBILITY.

COZ001>005-013-030-031-251600-
...NORTHWEST COLORADO...

CITY           SKY/WX    TMP DP  RH WIND       PRES   REMARKS
CRAIG          CLOUDY    64  57  78 NW5       30.25S
HAYDEN         FAIR      63  48  59 CALM      30.27F
MEEKER         CLOUDY    64  58  80 CALM      30.26S
RABBIT EARS PA CLOUDY    55  45  67 SW6       30.53F
STEAMBOAT SPGS PTSUNNY   66  49  55 CALM      30.28F
WALDEN         FAIR      61  46  59 S7        30.36S
$$

COZ006>008-011-251600-
...WEST CENTRAL VALLEYS...

CITY           SKY/WX    TMP DP  RH WIND       PRES   REMARKS
GRAND JUNCTION CLOUDY    68  63  84 E6        30.18S
MONTROSE       CLOUDY    67  60  78 CALM      30.25F
EAGLE          PTSUNNY   66  54  63 CALM      30.30S
RIFLE          CLOUDY    65  61  87 CALM      30.22F
DELTA          RAIN      69  61  74 E3        30.22F
NUCLA          PTSUNNY   64  59  82 CALM      30.28S
$$

COZ017>023-064>068-251600-
...SOUTHWEST COLORADO...

CITY           SKY/WX    TMP DP  RH WIND       PRES   REMARKS
DURANGO        CLOUDY    65  58  78 E5        30.31R
CORTEZ         FAIR      70  60  70 W3        30.24R
PAGOSA SPRINGS CLOUDY    62  57  84 CALM      30.39S
TELLURIDE      CLOUDY    60  52  75 CALM      30.45R
WOLF CREEK PAS NOT AVBL
$$

COZ009-010-012-014-032>034-037-058>063-251600-
...CENTRAL COLORADO...

CITY           SKY/WX    TMP DP  RH WIND       PRES   REMARKS
ASPEN          LGT RAIN  60  53  77 NW8       30.35S
BUENA VISTA    CLOUDY    61  53  74 CALM      30.38S
COPPER MTN     CLOUDY    54  43  66 S9        30.65S
BERTHOUD PASS  PTSUNNY   45  32  61 SW10G21   30.68S
COTTONWOOD PAS RAIN      59  54  82 E8        30.51S
GUNNISON       FAIR      60  53  77 N7        30.39F
KREMMLING      CLOUDY    73  46  38 CALM      30.32F
LEADVILLE      CLOUDY    54  47  77 CALM      30.49S
MONARCH PASS     N/A     46  46 100 SW16      30.75S
SALIDA         CLOUDY    65  53  63 N6        30.43S
SUNLIGHT       CLOUDY    50  45  81 SW7       30.57F
WILKERSON PASS DRIZZLE   48  43  81 W8        30.62S
$$

COZ069>075-251600-
...SAN LUIS VALLEY/SANGRE DE CRISTO MOUNTAINS...

CITY           SKY/WX    TMP DP  RH WIND       PRES   REMARKS
ALAMOSA        FAIR      64  56  75 E3        30.36S
DEL NORTE      PTSUNNY   63  52  67 W5        30.40S
LA VETA PASS   NOT AVBL
SAGUACHE         N/A    N/A N/A N/A MISG        N/A
$$

COZ035-036-038>040-251600-
...NORTHERN COLORADO FRONT RANGE...

CITY           SKY/WX    TMP DP  RH WIND       PRES   REMARKS
DENVER INTL AP PTSUNNY   84  45  25 W13       30.09R
DMNS CITY PARK   N/A     76  54  45 E2        30.10S
AURORA         PTSUNNY   81  50  34 W7        30.13R
FRONT RANGE AP FAIR      82  45  26 W12       30.11R
ERIE MUNI ARPT FAIR      80  44  28 S3        30.08R
BOULDER MUN AP FAIR      73  48  40 E3        30.10R
CENTENNIAL     PTSUNNY   79  46  31 SW12G22   30.14R
BROOMFIELD     FAIR      79  45  29 SW12      30.12F
FORT COLLINS   FAIR      74  53  48 CALM      30.08R
LONGMONT       FAIR      74  53  46 SE9       30.10R
$$

COZ041-046-047-076>085-087-088-251600-
...PIKES PEAK/PALMER DIVIDE AND SOUTHERN FOOTHILLS...

CITY           SKY/WX    TMP DP  RH WIND       PRES   REMARKS
COLO. SPRINGS  PTSUNNY   79  53  40 N5        30.19R
A. F. ACADEMY  PTSUNNY   73  48  40 CALM      30.20R
SCHRIEVER AFB  FAIR      78  50  37 NW6       30.19R
CHEYENNE MTN   PTSUNNY   74  45  36 S5        30.19R
ELLICOTT       NOT AVBL
FALCON           N/A     75  46  36 W16       30.24S
FORT CARSON    FAIR      74  54  48 CALM      30.15R
LIMON          FAIR      71  62  73 SE6       30.12F
MONUMENT HILL  FAIR      70  50  49 W8        30.27R
CANON CITY     SUNNY     81  55  41 W12G17    30.13F
WALSENBURG     FAIR      82  50  32 W16G23    30.20S
TRINIDAD       FAIR      79  53  40 W6        30.17S
$$

COZ042>045-048>051-090-091-251600-
...NORTHEAST COLORADO...

CITY           SKY/WX    TMP DP  RH WIND       PRES   REMARKS
GREELEY ARPT   FAIR      69  57  65 NW7       30.06R
AKRON          FAIR      77  59  53 S8        30.04S
BURLINGTON     FAIR      80  66  62 S15       30.05S
WRAY           NOT AVBL
YUMA           FAIR      79  57  47 S10       30.02S
STERLING       FAIR      77  63  61 SW7       29.99S
HOLYOKE        FAIR      81  64  57 SW5       30.01S
FORT MORGAN    FAIR      75  58  55 S3        30.03S
$$

COZ086-089-092>099-251600-
...SOUTHEAST COLORADO...

CITY           SKY/WX    TMP DP  RH WIND       PRES   REMARKS
PUEBLO         FAIR      77  56  48 S5        30.08R
LA JUNTA       FAIR      84  57  39 SW9       30.05R
LAMAR          FAIR      85  64  49 VRB3      30.01S
SPRINGFIELD      N/A     80  60  50 SW16G23   30.09R
$$



USA.gov is the U.S. government's official web portal to all federal, state and local government web resources and services.